GW4212 Weather Reports


Display with metric or nautical units.
time (UTC)temp
F
wind
direction
speed
MPH
gust
MPH
rain 1hr
in
rain 24hr
in
rain mn
in
humidity
%
barometer
mb
20260506223654 63 0.0 0.0 0.00 0.00 0.00 99 1013.2
20260506222643 63 0.0 0.0 0.00 0.00 0.00 99 1013.2
20260506221631 63 0.0 0.0 0.00 0.00 0.00 99 1013.3
20260506220620 62 0.0 0.0 0.00 0.00 0.00 99 1013.2
20260506215608 63 0.0 0.0 0.00 0.00 0.00 99 1013.3
20260506214603 63 0.0 0.0 0.00 0.00 0.00 99 1013.4
20260506213546 63 0.0 0.0 0.00 0.00 0.00 99 1013.3
20260506212535 63 0.0 0.0 0.00 0.00 0.00 99 1013.2
20260506211417 63 0.0 0.0 0.00 0.00 0.00 99 1013.2
20260506210305 63 0.0 0.0 0.00 0.00 0.00 99 1013.1
20260506205254 63 0.0 0.0 0.00 0.00 0.00 99 1013.0
20260506204141 63 0.0 0.0 0.00 0.00 0.00 99 1012.7
20260506203124 63 0.0 0.0 0.00 0.00 0.00 99 1012.8
20260506201910 63 0.0 0.0 0.00 0.00 0.00 99 1012.5
20260506200900 63 0.0 0.0 0.00 0.00 0.00 99 1012.5
20260506195848 63 0.0 0.0 0.00 0.00 0.00 99 1012.5
20260506194837 63 0.0 0.0 0.00 0.00 0.00 99 1012.3
20260506193731 63 0.0 0.0 0.00 0.00 0.00 99 1012.2
20260506192713 63 0.0 0.0 0.00 0.00 0.00 99 1012.2
20260506191702 63 0.0 0.0 0.00 0.00 0.00 99 1012.1
20260506190652 63 0.0 0.0 0.00 0.00 0.00 99 1012.1
20260506185641 63 0.0 0.0 0.00 0.00 0.00 99 1012.2
20260506184628 62 0.0 0.0 0.00 0.00 0.00 99 1012.2
20260506183515 63 0.0 0.0 0.00 0.00 0.00 99 1012.2
20260506182443 63 0.0 0.0 0.00 0.00 0.00 99 1012.1
20260506181432 63 0.0 0.0 0.00 0.00 0.00 99 1012.0
20260506180421 63 0.0 0.0 0.00 0.00 0.00 99 1012.0
20260506175208 63 0.0 0.0 0.00 0.00 0.00 99 1012.0
20260506174156 63 0.0 0.0 0.00 0.00 0.00 99 1011.9
20260506173152 63 0.0 0.0 0.00 0.00 0.00 99 1011.9
20260506171725 63 0.0 0.0 0.00 0.00 0.00 99 1012.0
20260506170715 63 0.0 0.0 0.00 0.00 0.00 99 1012.0
20260506165704 63 0.0 0.0 0.00 0.00 0.00 99 1012.0
20260506164652 63 0.0 0.0 0.00 0.00 0.00 99 1012.2
20260506163640 63 0.0 0.0 0.00 0.00 0.00 99 1012.1
20260506162634 63 0.0 0.0 0.00 0.00 0.00 99 1012.0
20260506161617 64 0.0 0.0 0.00 0.00 0.00 99 1012.0
20260506160602 64 0.0 0.0 0.00 0.00 0.00 99 1012.0
20260506155550 64 0.0 0.0 0.00 0.00 0.00 99 1012.0
20260506154539 64 0.0 0.0 0.00 0.00 0.00 99 1012.0
20260506153527 64 0.0 0.0 0.00 0.00 0.00 99 1012.0
20260506152521 64 0.0 0.0 0.00 0.00 0.00 99 1012.1
20260506151403 64 0.0 0.0 0.00 0.00 0.00 99 1012.2
20260506150141 64 0.0 0.0 0.00 0.00 0.00 99 1012.1
20260506145128 64 0.0 0.0 0.00 0.00 0.00 99 1012.1
20260506144117 65 0.0 0.0 0.00 0.00 0.00 99 1012.1
20260506143006 66 0.0 0.0 0.00 0.00 0.00 99 1012.1
20260506141959 65 0.0 0.0 0.00 0.00 0.00 99 1012.3
20260506140731 65 0.0 0.0 0.00 0.00 0.00 99 1012.5
20260506135720 65 0.0 0.0 0.00 0.00 0.00 99 1012.6
20260506134708 65 0.0 0.0 0.00 0.00 0.00 99 1012.6
20260506133658 64 0.0 0.0 0.00 0.00 0.00 99 1012.7
20260506132646 65 0.0 0.0 0.00 0.00 0.00 99 1012.9
20260506131640 65 0.0 0.0 0.00 0.00 0.00 99 1013.1
20260506130624 65 0.0 0.0 0.00 0.00 0.00 99 1013.1
20260506125612 65 0.0 0.0 0.00 0.00 0.00 99 1013.2
20260506124544 65 0.0 0.0 0.00 0.00 0.00 99 1013.2
20260506123533 66 0.0 0.0 0.00 0.00 0.00 99 1013.0
20260506122523 66 0.0 0.0 0.00 0.00 0.00 99 1012.9
20260506121516 66 0.0 0.0 0.00 0.00 0.00 99 1013.0
20260506120358 65 0.0 0.0 0.00 0.00 0.00 99 1013.1
20260506115348 66 0.0 0.0 0.00 0.00 0.00 99 1013.1
20260506114336 66 0.0 0.0 0.00 0.00 0.00 99 1013.2
20260506113325 67 0.0 0.0 0.00 0.00 0.00 99 1013.2
20260506112257 69 0.0 0.0 0.00 0.00 0.00 99 1013.3
20260506111044 68 0.0 0.0 0.00 0.00 0.00 99 1013.5
20260506110028 70 0.0 0.0 0.00 0.00 0.00 99 1013.6
20260506105016 70 0.0 0.0 0.00 0.00 0.00 99 1013.6
20260506103948 70 0.0 0.0 0.00 0.00 0.00 99 1013.3
20260506102936 70 0.0 0.0 0.00 0.00 0.00 99 1013.3
20260506101823 72 0.0 0.0 0.00 0.00 0.00 99 1013.2
20260506100817 74 0.0 0.0 0.00 0.00 0.00 99 1013.1
20260506095802 73 0.0 0.0 0.00 0.00 0.00 99 1013.0
20260506094750 68 0.0 0.0 0.00 0.00 0.00 99 1013.3
20260506093740 73 0.0 0.0 0.00 0.00 0.00 99 1013.1
20260506092728 71 0.0 0.0 0.00 0.00 0.00 99 1013.0
20260506091717 70 0.0 0.0 0.00 0.00 0.00 99 1012.8
20260506090712 72 0.0 0.0 0.00 0.00 0.00 99 1012.7
20260506085654 75 0.0 0.0 0.00 0.00 0.00 99 1012.5
20260506084643 70 0.0 0.0 0.00 0.00 0.00 99 1012.6
20260506083632 71 0.0 0.0 0.00 0.00 0.00 99 1012.6
20260506082605 70 0.0 0.0 0.00 0.00 0.00 99 1012.5
20260506081553 69 0.0 0.0 0.00 0.00 0.00 99 1012.6
20260506080546 74 0.0 0.0 0.00 0.00 0.00 99 1012.5
20260506073451 70 0.0 0.0 0.00 0.00 0.00 99 1012.7
20260506072439 79 0.0 0.0 0.00 0.00 0.00 99 1012.5
20260506071429 75 0.0 0.0 0.00 0.00 0.00 99 1012.5
20260506070424 72 0.0 0.0 0.00 0.00 0.00 99 1012.6
20260506062333 68 0.0 0.0 0.00 0.00 0.00 99 1012.6
20260506061322 73 0.0 0.0 0.00 0.00 0.00 99 1012.5
20260506060314 80 0.0 0.0 0.00 0.00 0.00 99 1012.3
20260506051108 62 0.0 0.0 0.00 0.00 0.00 99 1012.2
20260506044944 63 0.0 0.0 0.00 0.00 0.00 99 1012.0
20260506043934 63 0.0 0.0 0.00 0.00 0.00 99 1012.0
20260506042922 62 0.0 0.0 0.00 0.00 0.00 99 1011.9
20260506041911 62 0.0 0.0 0.00 0.00 0.00 99 1011.9
20260506040859 62 0.0 0.0 0.00 0.00 0.00 99 1011.9
20260506035853 63 0.0 0.0 0.00 0.00 0.00 99 1011.8
20260506034837 63 0.0 0.0 0.00 0.00 0.00 99 1012.0
20260506033826 63 0.0 0.0 0.00 0.00 0.00 99 1011.9
20260506032814 63 0.0 0.0 0.00 0.00 0.00 99 1012.0
20260506031802 63 0.0 0.0 0.00 0.00 0.00 99 1011.9
20260506030751 63 0.0 0.0 0.00 0.00 0.00 99 1011.8
20260506025755 63 0.0 0.0 0.00 0.00 0.00 99 1011.7
20260506022002 64 0.0 0.0 0.00 0.00 0.00 99 1011.7
20260506020951 64 0.0 0.0 0.00 0.00 0.00 99 1011.5
20260506015939 64 0.0 0.0 0.00 0.00 0.00 99 1011.5
20260506014927 64 0.0 0.0 0.00 0.00 0.00 99 1011.3
20260506013922 63 0.0 0.0 0.00 0.00 0.00 99 1010.9
20260506012905 64 0.0 0.0 0.00 0.00 0.00 99 1010.7
20260506011853 63 0.0 0.0 0.00 0.00 0.00 99 1010.9
20260506010843 64 0.0 0.0 0.00 0.00 0.00 99 1011.0
20260506005832 64 0.0 0.0 0.00 0.00 0.00 99 1011.1
20260506004819 64 0.0 0.0 0.00 0.00 0.00 99 1011.1
20260506003815 64 0.0 0.0 0.00 0.00 0.00 99 1011.2
20260506002758 64 0.0 0.0 0.00 0.00 0.00 99 1011.3
20260506001646 65 0.0 0.0 0.00 0.00 0.00 99 1011.5
20260506000635 65 0.0 0.0 0.00 0.00 0.00 99 1011.6
20260505235623 65 0.0 0.0 0.00 0.00 0.00 99 1011.6
20260505234612 65 0.0 0.0 0.00 0.00 0.00 99 1011.6
20260505233607 65 0.0 0.0 0.00 0.00 0.00 99 1011.6
20260505232550 65 0.0 0.0 0.00 0.00 0.00 99 1011.6
20260505231538 65 0.0 0.0 0.00 0.00 0.00 99 1011.8
20260505230527 65 0.0 0.0 0.00 0.00 0.00 99 1011.7
20260505225516 64 0.0 0.0 0.00 0.00 0.00 99 1011.7
20260505224402 65 0.0 0.0 0.00 0.00 0.00 99 1011.5